Location: Stockholm
(59.3330°N, 18.0500°E)
Time: 01:08:37
(UTC+02:00)

Oscar 19 - Visible Passes

Search period start: 01 April 2023 00:00
Search period end: 11 April 2023 00:00
Orbit: 772 x 790 km, 98.8° (Epoch: 31 March)

Date Brightness Start Highest point End Pass type
(mag) Time Alt. Az. Time Alt. Az. Time Alt. Az.
01 Apr 13.5 03:13:52 10° ENE 03:15:43 12° E 03:17:33 10° E visible
01 Apr 11.5 04:51:11 10° NNE 04:56:13 51° E 05:01:16 10° S visible
02 Apr 12.4 04:19:11 10° NNE 04:23:49 32° E 04:28:25 10° SSE visible
03 Apr 13.1 03:47:28 10° NE 03:51:15 20° E 03:55:02 10° SE visible
03 Apr 10.8 05:26:06 10° NNE 05:31:18 85° ESE 05:36:29 10° SSW visible
04 Apr 13.4 03:16:28 10° NE 03:18:32 12° E 03:20:36 10° ESE visible
04 Apr 11.5 04:53:57 10° NNE 04:59:02 53° ESE 05:04:05 10° S visible
05 Apr 12.3 04:21:57 10° NNE 04:26:37 33° E 04:31:16 10° SSE visible
06 Apr 13.0 03:50:11 10° NE 03:54:03 21° E 03:57:55 10° SE visible
07 Apr 13.4 03:19:04 10° NE 03:21:21 13° E 03:23:38 10° ESE visible
07 Apr 11.4 04:56:43 10° NNE 05:01:48 55° ESE 05:06:53 10° S visible
08 Apr 12.3 04:24:41 10° NNE 04:29:24 34° E 04:34:07 10° SSE visible
09 Apr 13.0 03:52:54 10° NE 03:56:51 22° E 04:00:48 10° SE visible
10 Apr 13.4 03:21:41 10° NE 03:24:09 13° E 03:26:37 10° ESE visible
10 Apr 11.4 04:59:27 10° NNE 05:04:34 57° ESE 05:09:41 10° S visible
